Datum;"Wasserstand in cm";"Stationsnummer: 6943706";"Stationsname: Reitwein, Wehr Triftweg OP";"Gew?sser: Letschiner Hauptgraben";"Fehlwerte: -777"
"19.03.2024 00:00";150
"19.03.2024 00:15";150
"19.03.2024 00:30";149
"19.03.2024 00:45";149
"19.03.2024 01:00";149
"19.03.2024 01:15";149
"19.03.2024 01:30";149
"19.03.2024 01:45";149
"19.03.2024 02:00";149
"19.03.2024 02:15";149
"19.03.2024 02:30";149
"19.03.2024 02:45";149
"19.03.2024 03:00";149
"19.03.2024 03:15";149
"19.03.2024 03:30";149
"19.03.2024 03:45";149
"19.03.2024 04:00";149
"19.03.2024 04:15";149
"19.03.2024 04:30";149
"19.03.2024 04:45";149
"19.03.2024 05:00";149
"19.03.2024 05:15";149
"19.03.2024 05:30";149
"19.03.2024 05:45";149
"19.03.2024 06:00";149
"19.03.2024 06:15";149
"19.03.2024 06:30";149
"19.03.2024 06:45";149
"19.03.2024 07:00";149
"19.03.2024 07:15";149
"19.03.2024 07:30";149
"19.03.2024 07:45";149
"19.03.2024 08:00";149
"19.03.2024 08:15";149
"19.03.2024 08:30";149
"19.03.2024 08:45";149
"19.03.2024 09:00";149
"19.03.2024 09:15";149
"19.03.2024 09:30";149
"19.03.2024 09:45";149
"19.03.2024 10:00";149
"19.03.2024 10:15";149
"19.03.2024 10:30";149
"19.03.2024 10:45";149
"19.03.2024 11:00";149
"19.03.2024 11:15";149
"19.03.2024 11:30";149
"19.03.2024 11:45";149
"19.03.2024 12:00";149
"19.03.2024 12:15";149
"19.03.2024 12:30";149
"19.03.2024 12:45";149
"19.03.2024 13:00";149
"19.03.2024 13:15";149
"19.03.2024 13:30";149
"19.03.2024 13:45";149
"19.03.2024 14:00";149
"19.03.2024 14:15";149
"19.03.2024 14:30";149
"19.03.2024 14:45";149
"19.03.2024 15:00";149
"19.03.2024 15:15";149
"19.03.2024 15:30";149
"19.03.2024 15:45";149
"19.03.2024 16:00";149
"19.03.2024 16:15";149
"19.03.2024 16:30";149
"19.03.2024 16:45";149
"19.03.2024 17:00";149
"19.03.2024 17:15";149
"19.03.2024 17:30";149
"19.03.2024 17:45";149
"19.03.2024 18:00";149
"19.03.2024 18:15";149
"19.03.2024 18:30";149
"19.03.2024 18:45";149
"19.03.2024 19:00";148
"19.03.2024 19:15";148
"19.03.2024 19:30";148
"19.03.2024 19:45";148
"19.03.2024 20:00";148
"19.03.2024 20:15";148
"19.03.2024 20:30";148
"19.03.2024 20:45";148
"19.03.2024 21:00";148
"19.03.2024 21:15";148
"19.03.2024 21:30";148
"19.03.2024 21:45";148
"19.03.2024 22:00";148
"19.03.2024 22:15";148
"19.03.2024 22:30";148
"19.03.2024 22:45";148
"19.03.2024 23:00";148
"19.03.2024 23:15";148
"19.03.2024 23:30";148
"19.03.2024 23:45";148
"20.03.2024 00:00";148
"20.03.2024 00:15";148
"20.03.2024 00:30";148
"20.03.2024 00:45";148
"20.03.2024 01:00";148
"20.03.2024 01:15";148
"20.03.2024 01:30";148
"20.03.2024 01:45";148
"20.03.2024 02:00";148
"20.03.2024 02:15";148
"20.03.2024 02:30";148
"20.03.2024 02:45";148
"20.03.2024 03:00";148
"20.03.2024 03:15";148
"20.03.2024 03:30";148
"20.03.2024 03:45";148
"20.03.2024 04:00";148
"20.03.2024 04:15";148
"20.03.2024 04:30";148
"20.03.2024 04:45";148
"20.03.2024 05:00";148
"20.03.2024 05:15";148
"20.03.2024 05:30";148
"20.03.2024 05:45";148
"20.03.2024 06:00";148
"20.03.2024 06:15";148
"20.03.2024 06:30";148
"20.03.2024 06:45";148
"20.03.2024 07:00";148
"20.03.2024 07:15";148
"20.03.2024 07:30";148
"20.03.2024 07:45";148
"20.03.2024 08:00";148
"20.03.2024 08:15";148
"20.03.2024 08:30";148
"20.03.2024 08:45";148
"20.03.2024 09:00";148
"20.03.2024 09:15";148
"20.03.2024 09:30";148
"20.03.2024 09:45";148
"20.03.2024 10:00";148
"20.03.2024 10:15";148
"20.03.2024 10:30";148
"20.03.2024 10:45";148
"20.03.2024 11:00";148
"20.03.2024 11:15";148
"20.03.2024 11:30";148
"20.03.2024 11:45";148
"20.03.2024 12:00";148
"20.03.2024 12:15";148
"20.03.2024 12:30";148
"20.03.2024 12:45";148
"20.03.2024 13:00";148
"20.03.2024 13:15";148
"20.03.2024 13:30";148
"20.03.2024 13:45";148
"20.03.2024 14:00";148
"20.03.2024 14:15";148
"20.03.2024 14:30";148
"20.03.2024 14:45";148
"20.03.2024 15:00";148
"20.03.2024 15:15";148
"20.03.2024 15:30";148
"20.03.2024 15:45";148
"20.03.2024 16:00";149
"20.03.2024 16:15";147
"20.03.2024 16:30";147
"20.03.2024 16:45";147
"20.03.2024 17:00";147
"20.03.2024 17:15";148
"20.03.2024 17:30";148
"20.03.2024 17:45";148
"20.03.2024 18:00";148
"20.03.2024 18:15";148
"20.03.2024 18:30";147
"20.03.2024 18:45";147
"20.03.2024 19:00";148
"20.03.2024 19:15";148
"20.03.2024 19:30";148
"20.03.2024 19:45";148
"20.03.2024 20:00";148
"20.03.2024 20:15";147
"20.03.2024 20:30";147
"20.03.2024 20:45";147
"20.03.2024 21:00";147
"20.03.2024 21:15";147
"20.03.2024 21:30";147
"20.03.2024 21:45";147
"20.03.2024 22:00";147
"20.03.2024 22:15";147
"20.03.2024 22:30";147
"20.03.2024 22:45";147
"20.03.2024 23:00";147
"20.03.2024 23:15";147
"20.03.2024 23:30";147
"20.03.2024 23:45";147
"21.03.2024 00:00";147
"21.03.2024 00:15";147
"21.03.2024 00:30";147
"21.03.2024 00:45";147
"21.03.2024 01:00";147
"21.03.2024 01:15";147
"21.03.2024 01:30";147
"21.03.2024 01:45";147
"21.03.2024 02:00";147
"21.03.2024 02:15";147
"21.03.2024 02:30";147
"21.03.2024 02:45";147
"21.03.2024 03:00";147
"21.03.2024 03:15";147
"21.03.2024 03:30";147
"21.03.2024 03:45";147
"21.03.2024 04:00";147
"21.03.2024 04:15";147
"21.03.2024 04:30";147
"21.03.2024 04:45";147
"21.03.2024 05:00";147
"21.03.2024 05:15";147
"21.03.2024 05:30";147
"21.03.2024 05:45";147
"21.03.2024 06:00";147
"21.03.2024 06:15";147
"21.03.2024 06:30";147
"21.03.2024 06:45";147
"21.03.2024 07:00";147
"21.03.2024 07:15";147
"21.03.2024 07:30";147
"21.03.2024 07:45";147
"21.03.2024 08:00";149
"21.03.2024 08:15";147
"21.03.2024 08:30";147
"21.03.2024 08:45";147
"21.03.2024 09:00";147
"21.03.2024 09:15";147
"21.03.2024 09:30";147
"21.03.2024 09:45";147
"21.03.2024 10:00";147
"21.03.2024 10:15";147
"21.03.2024 10:30";147
"21.03.2024 10:45";147
"21.03.2024 11:00";147
"21.03.2024 11:15";147
"21.03.2024 11:30";147
"21.03.2024 11:45";147
"21.03.2024 12:00";147
"21.03.2024 12:15";147
"21.03.2024 12:30";147
"21.03.2024 12:45";147
"21.03.2024 13:00";147
"21.03.2024 13:15";147
"21.03.2024 13:30";147
"21.03.2024 13:45";147
"21.03.2024 14:00";148
"21.03.2024 14:15";147
"21.03.2024 14:30";147
"21.03.2024 14:45";147
"21.03.2024 15:00";147
"21.03.2024 15:15";147
"21.03.2024 15:30";147
"21.03.2024 15:45";147
"21.03.2024 16:00";147
"21.03.2024 16:15";147
"21.03.2024 16:30";147
"21.03.2024 16:45";147
"21.03.2024 17:00";147
"21.03.2024 17:15";147
"21.03.2024 17:30";147
"21.03.2024 17:45";147
"21.03.2024 18:00";147
"21.03.2024 18:15";147
"21.03.2024 18:30";147
"21.03.2024 18:45";147
"21.03.2024 19:00";147
"21.03.2024 19:15";147
"21.03.2024 19:30";147
"21.03.2024 19:45";147
"21.03.2024 20:00";147
"21.03.2024 20:15";147
"21.03.2024 20:30";146
"21.03.2024 20:45";146
"21.03.2024 21:00";146
"21.03.2024 21:15";146
"21.03.2024 21:30";146
"21.03.2024 21:45";146
"21.03.2024 22:00";146
"21.03.2024 22:15";146
"21.03.2024 22:30";146
"21.03.2024 22:45";146
"21.03.2024 23:00";146
"21.03.2024 23:15";146
"21.03.2024 23:30";146
"21.03.2024 23:45";146
"22.03.2024 00:00";146
"22.03.2024 00:15";146
"22.03.2024 00:30";146
"22.03.2024 00:45";146
"22.03.2024 01:00";146
"22.03.2024 01:15";146
"22.03.2024 01:30";146
"22.03.2024 01:45";146
"22.03.2024 02:00";146
"22.03.2024 02:15";146
"22.03.2024 02:30";146
"22.03.2024 02:45";146
"22.03.2024 03:00";146
"22.03.2024 03:15";146
"22.03.2024 03:30";146
"22.03.2024 03:45";146
"22.03.2024 04:00";146
"22.03.2024 04:15";146
"22.03.2024 04:30";146
"22.03.2024 04:45";146
"22.03.2024 05:00";146
"22.03.2024 05:15";146
"22.03.2024 05:30";146
"22.03.2024 05:45";146
"22.03.2024 06:00";146
"22.03.2024 06:15";145
"22.03.2024 06:30";145
"22.03.2024 06:45";145
"22.03.2024 07:00";145
"22.03.2024 07:15";145
"22.03.2024 07:30";145
"22.03.2024 07:45";145
"22.03.2024 08:00";145
"22.03.2024 08:15";145
"22.03.2024 08:30";145
"22.03.2024 08:45";145
"22.03.2024 09:00";145
"22.03.2024 09:15";145
"22.03.2024 09:30";145
"22.03.2024 09:45";146
"22.03.2024 10:00";146
"22.03.2024 10:15";145
"22.03.2024 10:30";145
"22.03.2024 10:45";145
"22.03.2024 11:00";146
"22.03.2024 11:15";145
"22.03.2024 11:30";145
"22.03.2024 11:45";145
"22.03.2024 12:00";145
"22.03.2024 12:15";145
"22.03.2024 12:30";145
"22.03.2024 12:45";145
"22.03.2024 13:00";145
"22.03.2024 13:15";145
"22.03.2024 13:30";145
"22.03.2024 13:45";145
"22.03.2024 14:00";145
"22.03.2024 14:15";145
"22.03.2024 14:30";145
"22.03.2024 14:45";145
"22.03.2024 15:00";145
"22.03.2024 15:15";145
"22.03.2024 15:30";145
"22.03.2024 15:45";145
"22.03.2024 16:00";145
"22.03.2024 16:15";145
"22.03.2024 16:30";145
"22.03.2024 16:45";145
"22.03.2024 17:00";145
"22.03.2024 17:15";145
"22.03.2024 17:30";145
"22.03.2024 17:45";145
"22.03.2024 18:00";145
"22.03.2024 18:15";145
"22.03.2024 18:30";145
"22.03.2024 18:45";145
"22.03.2024 19:00";145
"22.03.2024 19:15";145
"22.03.2024 19:30";145
"22.03.2024 19:45";145
"22.03.2024 20:00";145
"22.03.2024 20:15";145
"22.03.2024 20:30";145
"22.03.2024 20:45";145
"22.03.2024 21:00";145
"22.03.2024 21:15";145
"22.03.2024 21:30";145
"22.03.2024 21:45";145
"22.03.2024 22:00";145
"22.03.2024 22:15";145
"22.03.2024 22:30";145
"22.03.2024 22:45";145
"22.03.2024 23:00";145
"22.03.2024 23:15";145
"22.03.2024 23:30";145
"22.03.2024 23:45";146
"23.03.2024 00:00";146
"23.03.2024 00:15";146
"23.03.2024 00:30";146
"23.03.2024 00:45";146
"23.03.2024 01:00";146
"23.03.2024 01:15";146
"23.03.2024 01:30";146
"23.03.2024 01:45";146
"23.03.2024 02:00";146
"23.03.2024 02:15";146
"23.03.2024 02:30";145
"23.03.2024 02:45";145
"23.03.2024 03:00";145
"23.03.2024 03:15";145
"23.03.2024 03:30";145
"23.03.2024 03:45";145
"23.03.2024 04:00";145
"23.03.2024 04:15";145
"23.03.2024 04:30";145
"23.03.2024 04:45";145
"23.03.2024 05:00";145
"23.03.2024 05:15";145
"23.03.2024 05:30";145
"23.03.2024 05:45";145
"23.03.2024 06:00";145
"23.03.2024 06:15";145
"23.03.2024 06:30";145
"23.03.2024 06:45";145
"23.03.2024 07:00";145
"23.03.2024 07:15";145
"23.03.2024 07:30";145
"23.03.2024 07:45";144
"23.03.2024 08:00";144
"23.03.2024 08:15";144
"23.03.2024 08:30";145
"23.03.2024 08:45";144
"23.03.2024 09:00";144
"23.03.2024 09:15";144
"23.03.2024 09:30";144
"23.03.2024 09:45";145
"23.03.2024 10:00";144
"23.03.2024 10:15";145
"23.03.2024 10:30";145
"23.03.2024 10:45";145
"23.03.2024 11:00";145
"23.03.2024 11:15";145
"23.03.2024 11:30";145
"23.03.2024 11:45";145
"23.03.2024 12:00";145
"23.03.2024 12:15";145
"23.03.2024 12:30";145
"23.03.2024 12:45";145
"23.03.2024 13:00";145
"23.03.2024 13:15";145
"23.03.2024 13:30";145
"23.03.2024 13:45";145
"23.03.2024 14:00";145
"23.03.2024 14:15";145
"23.03.2024 14:30";145
"23.03.2024 14:45";145
"23.03.2024 15:00";145
"23.03.2024 15:15";146
"23.03.2024 15:30";146
"23.03.2024 15:45";146
"23.03.2024 16:00";146
"23.03.2024 16:15";146
"23.03.2024 16:30";145
"23.03.2024 16:45";146
"23.03.2024 17:00";146
"23.03.2024 17:15";147
"23.03.2024 17:30";147
"23.03.2024 17:45";147
"23.03.2024 18:00";147
"23.03.2024 18:15";147
"23.03.2024 18:30";147
"23.03.2024 18:45";147
"23.03.2024 19:00";147
"23.03.2024 19:15";147
"23.03.2024 19:30";147
"23.03.2024 19:45";147
"23.03.2024 20:00";147
"23.03.2024 20:15";147
"23.03.2024 20:30";147
"23.03.2024 20:45";147
"23.03.2024 21:00";147
"23.03.2024 21:15";147
"23.03.2024 21:30";147
"23.03.2024 21:45";147
"23.03.2024 22:00";147
"23.03.2024 22:15";147
"23.03.2024 22:30";147
"23.03.2024 22:45";147
"23.03.2024 23:00";147
"23.03.2024 23:15";147
"23.03.2024 23:30";147
"23.03.2024 23:45";147
"24.03.2024 00:00";147
"24.03.2024 00:15";147
"24.03.2024 00:30";147
"24.03.2024 00:45";147
"24.03.2024 01:00";147
"24.03.2024 01:15";147
"24.03.2024 01:30";147
"24.03.2024 01:45";147
"24.03.2024 02:00";147
"24.03.2024 02:15";147
"24.03.2024 02:30";147
"24.03.2024 02:45";147
"24.03.2024 03:00";147
"24.03.2024 03:15";147
"24.03.2024 03:30";147
"24.03.2024 03:45";147
"24.03.2024 04:00";147
"24.03.2024 04:15";147
"24.03.2024 04:30";147
"24.03.2024 04:45";147
"24.03.2024 05:00";147
"24.03.2024 05:15";147
"24.03.2024 05:30";147
"24.03.2024 05:45";147
"24.03.2024 06:00";146
"24.03.2024 06:15";146
"24.03.2024 06:30";146
"24.03.2024 06:45";146
"24.03.2024 07:00";146
"24.03.2024 07:15";146
"24.03.2024 07:30";146
"24.03.2024 07:45";146
"24.03.2024 08:00";146
"24.03.2024 08:15";146
"24.03.2024 08:30";146
"24.03.2024 08:45";146
"24.03.2024 09:00";146
"24.03.2024 09:15";146
"24.03.2024 09:30";146
"24.03.2024 09:45";146
"24.03.2024 10:00";146
"24.03.2024 10:15";146
"24.03.2024 10:30";146
"24.03.2024 10:45";146
"24.03.2024 11:00";146
"24.03.2024 11:15";146
"24.03.2024 11:30";146
"24.03.2024 11:45";146
"24.03.2024 12:00";146
"24.03.2024 12:15";146
"24.03.2024 12:30";146
"24.03.2024 12:45";146
"24.03.2024 13:00";146
"24.03.2024 13:15";146
"24.03.2024 13:30";146
"24.03.2024 13:45";146
"24.03.2024 14:00";146
"24.03.2024 14:15";146
"24.03.2024 14:30";146
"24.03.2024 14:45";146
"24.03.2024 15:00";146
"24.03.2024 15:15";146
"24.03.2024 15:30";146
"24.03.2024 15:45";146
"24.03.2024 16:00";146
"24.03.2024 16:15";146
"24.03.2024 16:30";146
"24.03.2024 16:45";146
"24.03.2024 17:00";146
"24.03.2024 17:15";146
"24.03.2024 17:30";146
"24.03.2024 17:45";146
"24.03.2024 18:00";147
"24.03.2024 18:15";147
"24.03.2024 18:30";147
"24.03.2024 18:45";147
"24.03.2024 19:00";147
"24.03.2024 19:15";147
"24.03.2024 19:30";146
"24.03.2024 19:45";147
"24.03.2024 20:00";146
"24.03.2024 20:15";146
"24.03.2024 20:30";146
"24.03.2024 20:45";146
"24.03.2024 21:00";145
"24.03.2024 21:15";143
"24.03.2024 21:30";143
"24.03.2024 21:45";142
"24.03.2024 22:00";142
"24.03.2024 22:15";142
"24.03.2024 22:30";142
"24.03.2024 22:45";142
"24.03.2024 23:00";142
"24.03.2024 23:15";142
"24.03.2024 23:30";142
"24.03.2024 23:45";142
"25.03.2024 00:00";142
"25.03.2024 00:15";142
"25.03.2024 00:30";141
"25.03.2024 00:45";141
"25.03.2024 01:00";141
"25.03.2024 01:15";141
"25.03.2024 01:30";141
"25.03.2024 01:45";141
"25.03.2024 02:00";141
"25.03.2024 02:15";141
"25.03.2024 02:30";141
"25.03.2024 02:45";141
"25.03.2024 03:00";141
"25.03.2024 03:15";141
"25.03.2024 03:30";141
"25.03.2024 03:45";141
"25.03.2024 04:00";141
"25.03.2024 04:15";141
"25.03.2024 04:30";141
"25.03.2024 04:45";141
"25.03.2024 05:00";141
"25.03.2024 05:15";141
"25.03.2024 05:30";143
"25.03.2024 05:45";143
"25.03.2024 06:00";143
"25.03.2024 06:15";143
"25.03.2024 06:30";143
"25.03.2024 06:45";143
"25.03.2024 07:00";143
"25.03.2024 07:15";143
"25.03.2024 07:30";143
"25.03.2024 07:45";143
"25.03.2024 08:00";143
"25.03.2024 08:15";143
"25.03.2024 08:30";143
"25.03.2024 08:45";143
"25.03.2024 09:00";143
"25.03.2024 09:15";143
"25.03.2024 09:30";143
"25.03.2024 09:45";143
"25.03.2024 10:00";143
"25.03.2024 10:15";143
"25.03.2024 10:30";143
"25.03.2024 10:45";142
"25.03.2024 11:00";142
"25.03.2024 11:15";143
"25.03.2024 11:30";144
"25.03.2024 11:45";147
"25.03.2024 12:00";148
"25.03.2024 12:15";149
"25.03.2024 12:30";148
"25.03.2024 12:45";148
"25.03.2024 13:00";148
"25.03.2024 13:15";148
"25.03.2024 13:30";148
"25.03.2024 13:45";148
"25.03.2024 14:00";148
"25.03.2024 14:15";148
"25.03.2024 14:30";148
"25.03.2024 14:45";148
"25.03.2024 15:00";148
"25.03.2024 15:15";148
"25.03.2024 15:30";147
"25.03.2024 15:45";147
"25.03.2024 16:00";147
"25.03.2024 16:15";147
"25.03.2024 16:30";147
"25.03.2024 16:45";147
"25.03.2024 17:00";147
"25.03.2024 17:15";147
"25.03.2024 17:30";147
"25.03.2024 17:45";147
"25.03.2024 18:00";147
"25.03.2024 18:15";147
"25.03.2024 18:30";147
"25.03.2024 18:45";147
"25.03.2024 19:00";147
"25.03.2024 19:15";147
"25.03.2024 19:30";147
"25.03.2024 19:45";147
"25.03.2024 20:00";147
"25.03.2024 20:15";147
"25.03.2024 20:30";147
"25.03.2024 20:45";147
"25.03.2024 21:00";147
"25.03.2024 21:15";147
"25.03.2024 21:30";147
"25.03.2024 21:45";147
"25.03.2024 22:00";147
"25.03.2024 22:15";147
"25.03.2024 22:30";147
"25.03.2024 22:45";147
"25.03.2024 23:00";146
"25.03.2024 23:15";146
"25.03.2024 23:30";146
"25.03.2024 23:45";146
"26.03.2024 00:00";146
"26.03.2024 00:15";146
"26.03.2024 00:30";146
"26.03.2024 00:45";146
"26.03.2024 01:00";146
"26.03.2024 01:15";146
"26.03.2024 01:30";146
"26.03.2024 01:45";146
"26.03.2024 02:00";146
"26.03.2024 02:15";146
"26.03.2024 02:30";146
"26.03.2024 02:45";146
"26.03.2024 03:00";146
"26.03.2024 03:15";146
"26.03.2024 03:30";146
"26.03.2024 03:45";146
"26.03.2024 04:00";146
"26.03.2024 04:15";146
"26.03.2024 04:30";146
"26.03.2024 04:45";146
"26.03.2024 05:00";146
"26.03.2024 05:15";146
"26.03.2024 05:30";146
"26.03.2024 05:45";146
"26.03.2024 06:00";146
"26.03.2024 06:15";146
"26.03.2024 06:30";146
"26.03.2024 06:45";146
"26.03.2024 07:00";146
"26.03.2024 07:15";146
"26.03.2024 07:30";146
"26.03.2024 07:45";146
"26.03.2024 08:00";146
"26.03.2024 08:15";146
"26.03.2024 08:30";146
"26.03.2024 08:45";146
"26.03.2024 09:00";146
"26.03.2024 09:15";146
"26.03.2024 09:30";146
"26.03.2024 09:45";146
"26.03.2024 10:00";146
"26.03.2024 10:15";146
"26.03.2024 10:30";146
"26.03.2024 10:45";146
"26.03.2024 11:00";146
"26.03.2024 11:15";146
"26.03.2024 11:30";146
"26.03.2024 11:45";146
"26.03.2024 12:00";145
"26.03.2024 12:15";145
"26.03.2024 12:30";145
"26.03.2024 12:45";145
"26.03.2024 13:00";145
"26.03.2024 13:15";145
"26.03.2024 13:30";145
"26.03.2024 13:45";145
"26.03.2024 14:00";145
"26.03.2024 14:15";145
"26.03.2024 14:30";145
"26.03.2024 14:45";145
"26.03.2024 15:00";145
"26.03.2024 15:15";145
"26.03.2024 15:30";145
"26.03.2024 15:45";145
"26.03.2024 16:00";145
"26.03.2024 16:15";145
"26.03.2024 16:30";145
"26.03.2024 16:45";145
"26.03.2024 17:00";144
"26.03.2024 17:15";144
"26.03.2024 17:30";144
"26.03.2024 17:45";144
"26.03.2024 18:00";144
"26.03.2024 18:15";144
"26.03.2024 18:30";144
"26.03.2024 18:45";144
"26.03.2024 19:00";144
"26.03.2024 19:15";144
"26.03.2024 19:30";144
"26.03.2024 19:45";144
"26.03.2024 20:00";144
"26.03.2024 20:15";145
"26.03.2024 20:30";148
"26.03.2024 20:45";148
"26.03.2024 21:00";148
"26.03.2024 21:15";148
"26.03.2024 21:30";148
"26.03.2024 21:45";148
"26.03.2024 22:00";148
"26.03.2024 22:15";148
"26.03.2024 22:30";148
"26.03.2024 22:45";148
"26.03.2024 23:00";148
"26.03.2024 23:15";148
"26.03.2024 23:30";148
"26.03.2024 23:45";148
"27.03.2024 00:00";148
"27.03.2024 00:15";148
"27.03.2024 00:30";148
"27.03.2024 00:45";148
"27.03.2024 01:00";148
"27.03.2024 01:15";148
"27.03.2024 01:30";148
"27.03.2024 01:45";148
"27.03.2024 02:00";148
"27.03.2024 02:15";148
"27.03.2024 02:30";148
"27.03.2024 02:45";148
"27.03.2024 03:00";148
"27.03.2024 03:15";148
"27.03.2024 03:30";148
"27.03.2024 03:45";148
"27.03.2024 04:00";148
"27.03.2024 04:15";148
"27.03.2024 04:30";148
"27.03.2024 04:45";148
"27.03.2024 05:00";148
"27.03.2024 05:15";148
"27.03.2024 05:30";148
"27.03.2024 05:45";148
"27.03.2024 06:00";148
"27.03.2024 06:15";148
"27.03.2024 06:30";148
"27.03.2024 06:45";148
"27.03.2024 07:00";148
"27.03.2024 07:15";148
"27.03.2024 07:30";148
"27.03.2024 07:45";148
"27.03.2024 08:00";148
"27.03.2024 08:15";148
"27.03.2024 08:30";148
"27.03.2024 08:45";148
"27.03.2024 09:00";148
"27.03.2024 09:15";148
"27.03.2024 09:30";148
"27.03.2024 09:45";148
"27.03.2024 10:00";148
"27.03.2024 10:15";148
"27.03.2024 10:30";148
"27.03.2024 10:45";148
"27.03.2024 11:00";148
"27.03.2024 11:15";148
"27.03.2024 11:30";148
"27.03.2024 11:45";148
"27.03.2024 12:00";148
"27.03.2024 12:15";148
"27.03.2024 12:30";148
"27.03.2024 12:45";148
"27.03.2024 13:00";148
"27.03.2024 13:15";148
"27.03.2024 13:30";148
"27.03.2024 13:45";148
"27.03.2024 14:00";148
"27.03.2024 14:15";148
"27.03.2024 14:30";148
"27.03.2024 14:45";147
"27.03.2024 15:00";147
"27.03.2024 15:15";147
"27.03.2024 15:30";147
"27.03.2024 15:45";147
"27.03.2024 16:00";147
"27.03.2024 16:15";147
"27.03.2024 16:30";147
"27.03.2024 16:45";147
"27.03.2024 17:00";147
"27.03.2024 17:15";147
"27.03.2024 17:30";148
"27.03.2024 17:45";148
"27.03.2024 18:00";148
"27.03.2024 18:15";148
"27.03.2024 18:30";148
"27.03.2024 18:45";148
"27.03.2024 19:00";148
"27.03.2024 19:15";148
"27.03.2024 19:30";148
"27.03.2024 19:45";148
"27.03.2024 20:00";148
"27.03.2024 20:15";148
"27.03.2024 20:30";148
"27.03.2024 20:45";148
"27.03.2024 21:00";148
"27.03.2024 21:15";148
"27.03.2024 21:30";148
"27.03.2024 21:45";148
"27.03.2024 22:00";148
"27.03.2024 22:15";148
"27.03.2024 22:30";148
"27.03.2024 22:45";148
"27.03.2024 23:00";148
"27.03.2024 23:15";148
"27.03.2024 23:30";148
"27.03.2024 23:45";148
"28.03.2024 00:00";148
"28.03.2024 00:15";148
"28.03.2024 00:30";148
"28.03.2024 00:45";148
"28.03.2024 01:00";148
"28.03.2024 01:15";148
"28.03.2024 01:30";147
"28.03.2024 01:45";148
"28.03.2024 02:00";148
"28.03.2024 02:15";148
"28.03.2024 02:30";148
"28.03.2024 02:45";148
"28.03.2024 03:00";148
"28.03.2024 03:15";148
"28.03.2024 03:30";148
"28.03.2024 03:45";148
"28.03.2024 04:00";148
"28.03.2024 04:15";148
"28.03.2024 04:30";147
"28.03.2024 04:45";148
"28.03.2024 05:00";147
"28.03.2024 05:15";147
"28.03.2024 05:30";147
"28.03.2024 05:45";147
"28.03.2024 06:00";147
"28.03.2024 06:15";147
"28.03.2024 06:30";147
"28.03.2024 06:45";147
"28.03.2024 07:00";147
"28.03.2024 07:15";147
"28.03.2024 07:30";147
"28.03.2024 07:45";147
"28.03.2024 08:00";147
"28.03.2024 08:15";147
"28.03.2024 08:30";147
"28.03.2024 08:45";147
"28.03.2024 09:00";147
"28.03.2024 09:15";147
"28.03.2024 09:30";147
"28.03.2024 09:45";147
"28.03.2024 10:00";147
"28.03.2024 10:15";147
"28.03.2024 10:30";147
"28.03.2024 10:45";147
"28.03.2024 11:00";147
"28.03.2024 11:15";147
"28.03.2024 11:30";147
"28.03.2024 11:45";147
"28.03.2024 12:00";147
"28.03.2024 12:15";147
"28.03.2024 12:30";147
"28.03.2024 12:45";147
"28.03.2024 13:00";147
"28.03.2024 13:15";147
"28.03.2024 13:30";147
"28.03.2024 13:45";147
"28.03.2024 14:00";148
"28.03.2024 14:15";148
"28.03.2024 14:30";148
"28.03.2024 14:45";148
"28.03.2024 15:00";147
"28.03.2024 15:15";147
"28.03.2024 15:30";147
"28.03.2024 15:45";147
"28.03.2024 16:00";147
"28.03.2024 16:15";147
"28.03.2024 16:30";147
"28.03.2024 16:45";147
"28.03.2024 17:00";147
"28.03.2024 17:15";147
"28.03.2024 17:30";147
"28.03.2024 17:45";147
"28.03.2024 18:00";147
"28.03.2024 18:15";147
"28.03.2024 18:30";147
"28.03.2024 18:45";147
"28.03.2024 19:00";147
"28.03.2024 19:15";147
"28.03.2024 19:30";147
"28.03.2024 19:45";147
"28.03.2024 20:00";147
"28.03.2024 20:15";146
"28.03.2024 20:30";146
"28.03.2024 20:45";146
"28.03.2024 21:00";146
"28.03.2024 21:15";146
"28.03.2024 21:30";146
"28.03.2024 21:45";146
"28.03.2024 22:00";146
"28.03.2024 22:15";146
"28.03.2024 22:30";146
"28.03.2024 22:45";146
"28.03.2024 23:00";146
"28.03.2024 23:15";146
"28.03.2024 23:30";146
"28.03.2024 23:45";146
"29.03.2024 00:00";146
"29.03.2024 00:15";146
"29.03.2024 00:30";146
"29.03.2024 00:45";146
"29.03.2024 01:00";146
"29.03.2024 01:15";146
"29.03.2024 01:30";146
"29.03.2024 01:45";146
"29.03.2024 02:00";146
"29.03.2024 02:15";146
"29.03.2024 02:30";146
"29.03.2024 02:45";146
"29.03.2024 03:00";146
"29.03.2024 03:15";146
"29.03.2024 03:30";146
"29.03.2024 03:45";146
"29.03.2024 04:00";146
"29.03.2024 04:15";146
"29.03.2024 04:30";146
"29.03.2024 04:45";146
"29.03.2024 05:00";146
"29.03.2024 05:15";146
"29.03.2024 05:30";146
"29.03.2024 05:45";146
"29.03.2024 06:00";146
"29.03.2024 06:15";146
"29.03.2024 06:30";146
"29.03.2024 06:45";145
"29.03.2024 07:00";145
"29.03.2024 07:15";145
"29.03.2024 07:30";145
"29.03.2024 07:45";145
"29.03.2024 08:00";145
"29.03.2024 08:15";145
"29.03.2024 08:30";145
"29.03.2024 08:45";145
"29.03.2024 09:00";145
"29.03.2024 09:15";145
"29.03.2024 09:30";145
"29.03.2024 09:45";145
"29.03.2024 10:00";145
"29.03.2024 10:15";145
"29.03.2024 10:30";145
"29.03.2024 10:45";145
"29.03.2024 11:00";145
"29.03.2024 11:15";145
"29.03.2024 11:30";145
"29.03.2024 11:45";145
"29.03.2024 12:00";145
"29.03.2024 12:15";145
"29.03.2024 12:30";145
"29.03.2024 12:45";145
"29.03.2024 13:00";145
"29.03.2024 13:15";145
"29.03.2024 13:30";145
"29.03.2024 13:45";145
"29.03.2024 14:00";145
"29.03.2024 14:15";145
"29.03.2024 14:30";145
"29.03.2024 14:45";145
"29.03.2024 15:00";145
"29.03.2024 15:15";145
"29.03.2024 15:30";145
"29.03.2024 15:45";145
"29.03.2024 16:00";145
"29.03.2024 16:15";145
"29.03.2024 16:30";145
"29.03.2024 16:45";145
"29.03.2024 17:00";145
"29.03.2024 17:15";145
"29.03.2024 17:30";145
"29.03.2024 17:45";145
"29.03.2024 18:00";145
"29.03.2024 18:15";145
"29.03.2024 18:30";145
"29.03.2024 18:45";145
"29.03.2024 19:00";145